NRT165 KLAX-KIAH

Flight info

Callsign NRT165
Flight time 2h 32m
Altitude 39000
Route DOTSS2 CNERY BLH SPTFR Q4 FUSCO DIESL TTORO3
Aircraft A321/M-SDE3FGHIRWY/LB1

Departure

Time 2026-04-26 16:53
Airport Los Angeles International Airport (KLAX)

Arrival

Time 2026-04-26 19:25
Airport George Bush Intercontinental Airport (KIAH)
Time Latitude Longitude Altitude Speed Heading
2026-04-26 16:22 33.93497 -118.38592 107 ft 0 kts 270°
2026-04-26 16:46 33.93497 -118.38578 107 ft 2 kts 270°
2026-04-26 16:46 33.93495 -118.38560 107 ft 2 kts 289°
2026-04-26 16:47 33.93489 -118.38544 106 ft 2 kts 303°
2026-04-26 16:47 33.93479 -118.38530 106 ft 2 kts 321°
2026-04-26 16:47 33.93467 -118.38520 106 ft 2 kts 336°
2026-04-26 16:47 33.93452 -118.38515 107 ft 2 kts 353°
2026-04-26 16:48 33.93444 -118.38514 107 ft 1 kts
2026-04-26 16:48 33.93441 -118.38514 107 ft 0 kts
2026-04-26 16:50 33.93444 -118.38514 107 ft 1 kts
2026-04-26 16:50 33.93465 -118.38514 106 ft 4 kts
2026-04-26 16:50 33.93501 -118.38512 106 ft 6 kts
2026-04-26 16:51 33.93512 -118.38511 106 ft 0 kts
2026-04-26 16:51 33.93523 -118.38511 106 ft 3 kts
2026-04-26 16:51 33.93552 -118.38509 106 ft 4 kts
2026-04-26 16:51 33.93586 -118.38489 106 ft 6 kts 58°
2026-04-26 16:52 33.93600 -118.38411 106 ft 11 kts 84°
2026-04-26 16:52 33.93606 -118.38345 105 ft 11 kts 84°
2026-04-26 16:52 33.93692 -118.38282 104 ft 10 kts 353°
2026-04-26 16:52 33.93729 -118.38349 105 ft 11 kts 261°
2026-04-26 16:53 33.93714 -118.38477 106 ft 35 kts 265°
2026-04-26 16:53 33.93650 -118.39151 110 ft 124 kts 262°
2026-04-26 16:53 33.93500 -118.40458 501 ft 176 kts 262°
2026-04-26 16:53 33.93321 -118.41885 1641 ft 173 kts 261°
2026-04-26 16:54 33.93156 -118.43258 2427 ft 172 kts 264°
2026-04-26 16:54 33.93008 -118.44759 2870 ft 193 kts 261°
2026-04-26 16:54 33.92474 -118.46409 2995 ft 233 kts 241°
2026-04-26 16:54 33.91484 -118.48088 3464 ft 256 kts 236°
2026-04-26 16:55 33.90404 -118.49771 4448 ft 258 kts 234°
2026-04-26 16:55 33.89269 -118.51451 5445 ft 260 kts 234°
2026-04-26 16:55 33.88134 -118.53124 6375 ft 263 kts 234°
2026-04-26 16:55 33.86932 -118.54781 7287 ft 268 kts 225°
2026-04-26 16:56 33.83286 -118.55850 9001 ft 295 kts 174°
2026-04-26 16:56 33.81302 -118.55305 9821 ft 300 kts 171°
2026-04-26 16:56 33.79253 -118.54707 10545 ft 307 kts 171°
2026-04-26 16:57 33.77135 -118.54108 10985 ft 324 kts 171°
2026-04-26 16:57 33.74857 -118.53484 11376 ft 342 kts 172°
2026-04-26 16:57 33.70262 -118.51337 12372 ft 376 kts 142°
2026-04-26 16:58 33.68663 -118.48844 13124 ft 382 kts 117°
2026-04-26 16:58 33.68014 -118.46850 13637 ft 384 kts 109°
2026-04-26 16:58 33.66036 -118.39675 15178 ft 396 kts 109°
2026-04-26 16:59 33.65172 -118.36522 15822 ft 401 kts 107°
2026-04-26 16:59 33.64407 -118.29862 17053 ft 410 kts 91°
2026-04-26 17:00 33.64433 -118.22985 18215 ft 420 kts 89°
2026-04-26 17:00 33.64481 -118.15904 19381 ft 428 kts 90°
2026-04-26 17:00 33.64489 -118.12342 19939 ft 432 kts 90°
2026-04-26 17:01 33.64491 -118.08714 20470 ft 437 kts 90°
2026-04-26 17:01 33.64489 -118.05031 21008 ft 441 kts 90°
2026-04-26 17:01 33.64483 -118.01369 21527 ft 445 kts 90°
2026-04-26 17:01 33.64477 -117.97635 22037 ft 449 kts 90°
2026-04-26 17:02 33.64469 -117.93870 22556 ft 452 kts 90°
2026-04-26 17:02 33.64461 -117.90124 23058 ft 456 kts 91°
2026-04-26 17:02 33.64451 -117.86279 23547 ft 459 kts 91°
2026-04-26 17:02 33.64391 -117.82481 23995 ft 462 kts 94°
2026-04-26 17:03 33.64039 -117.78618 24397 ft 466 kts 101°
2026-04-26 17:03 33.63347 -117.74838 24791 ft 468 kts 107°
2026-04-26 17:03 33.62452 -117.71091 25191 ft 472 kts 109°
2026-04-26 17:03 33.61493 -117.67315 25607 ft 475 kts 110°
2026-04-26 17:04 33.60531 -117.63536 25975 ft 479 kts 110°
2026-04-26 17:04 33.59559 -117.59692 26327 ft 484 kts 110°
2026-04-26 17:04 33.58589 -117.55816 26689 ft 488 kts 110°
2026-04-26 17:04 33.57618 -117.51903 27059 ft 491 kts 110°
2026-04-26 17:05 33.56646 -117.47990 27430 ft 494 kts 110°
2026-04-26 17:05 33.55668 -117.44052 27761 ft 498 kts 111°
2026-04-26 17:05 33.54666 -117.40023 28098 ft 502 kts 111°
2026-04-26 17:05 33.53668 -117.36031 28428 ft 506 kts 111°
2026-04-26 17:06 33.52657 -117.31972 28753 ft 509 kts 111°
2026-04-26 17:06 33.51699 -117.27911 29032 ft 514 kts 109°
2026-04-26 17:06 33.50955 -117.23713 29331 ft 521 kts 104°
2026-04-26 17:06 33.50481 -117.19372 29624 ft 527 kts 99°
2026-04-26 17:07 33.50298 -117.15025 29907 ft 531 kts 95°
2026-04-26 17:07 33.50240 -117.10559 30212 ft 534 kts 94°
2026-04-26 17:07 33.50216 -117.06114 30584 ft 534 kts 94°
2026-04-26 17:07 33.50189 -117.01730 30967 ft 533 kts 94°
2026-04-26 17:08 33.50150 -116.97278 31337 ft 533 kts 95°
2026-04-26 17:08 33.50095 -116.92851 31702 ft 533 kts 95°
2026-04-26 17:08 33.50031 -116.88457 32071 ft 532 kts 95°
2026-04-26 17:08 33.49963 -116.84001 32460 ft 532 kts 96°
2026-04-26 17:09 33.49894 -116.79591 32838 ft 531 kts 96°
2026-04-26 17:09 33.49845 -116.76674 33091 ft 530 kts 96°
2026-04-26 17:09 33.49748 -116.70798 33590 ft 530 kts 96°
2026-04-26 17:09 33.49672 -116.66399 33904 ft 530 kts 96°
2026-04-26 17:10 33.49598 -116.62046 34205 ft 530 kts 96°
2026-04-26 17:10 33.49515 -116.57609 34536 ft 530 kts 95°
2026-04-26 17:10 33.49437 -116.53219 34861 ft 529 kts 96°
2026-04-26 17:10 33.49355 -116.48864 35189 ft 528 kts 95°
2026-04-26 17:11 33.49276 -116.44499 35494 ft 527 kts 95°
2026-04-26 17:11 33.49197 -116.40087 35804 ft 528 kts 95°
2026-04-26 17:11 33.49134 -116.35728 36154 ft 527 kts 95°
2026-04-26 17:11 33.49072 -116.31365 36430 ft 527 kts 96°
2026-04-26 17:12 33.48944 -116.22611 36995 ft 526 kts 96°
2026-04-26 17:12 33.48873 -116.18228 37190 ft 527 kts 96°
2026-04-26 17:13 33.48888 -116.09477 37556 ft 532 kts 90°
2026-04-26 17:13 33.49216 -116.05067 37739 ft 535 kts 85°
2026-04-26 17:13 33.50698 -115.96303 38073 ft 540 kts 75°
2026-04-26 17:14 33.51821 -115.92060 38227 ft 541 kts 71°
2026-04-26 17:14 33.54374 -115.83579 38614 ft 541 kts 70°
2026-04-26 17:14 33.55644 -115.79384 38799 ft 542 kts 70°
2026-04-26 17:15 33.58153 -115.70863 38919 ft 543 kts 71°
2026-04-26 17:15 33.59388 -115.66600 38910 ft 544 kts 70°
2026-04-26 17:16 33.61858 -115.58060 38917 ft 544 kts 71°
2026-04-26 17:16 33.63855 -115.49334 38907 ft 542 kts 80°
2026-04-26 17:17 33.64795 -115.40422 38903 ft 539 kts 90°
2026-04-26 17:17 33.64651 -115.31516 38897 ft 532 kts 101°
2026-04-26 17:18 33.63477 -115.22809 38910 ft 526 kts 110°
2026-04-26 17:18 33.61678 -115.14385 38901 ft 527 kts 109°
2026-04-26 17:19 33.60290 -115.01272 38928 ft 536 kts 97°
2026-04-26 17:19 33.60070 -114.92302 38916 ft 537 kts 96°
2026-04-26 17:20 33.59929 -114.86383 38920 ft 538 kts 96°
2026-04-26 17:20 33.59241 -114.74507 38908 ft 532 kts 104°
2026-04-26 17:21 33.57794 -114.65923 38924 ft 528 kts 109°
2026-04-26 17:21 33.56125 -114.57372 38904 ft 530 kts 109°
2026-04-26 17:22 33.54466 -114.48779 38905 ft 530 kts 109°
2026-04-26 17:22 33.52821 -114.40157 38906 ft 531 kts 109°
2026-04-26 17:23 33.51181 -114.31563 38892 ft 531 kts 109°
2026-04-26 17:23 33.49527 -114.22931 38902 ft 532 kts 110°
2026-04-26 17:24 33.47869 -114.14327 38901 ft 532 kts 110°
2026-04-26 17:24 33.46201 -114.05698 38900 ft 532 kts 110°
2026-04-26 17:25 33.44527 -113.97083 38905 ft 533 kts 110°
2026-04-26 17:25 33.42844 -113.88452 38910 ft 534 kts 110°
2026-04-26 17:26 33.41163 -113.79860 38914 ft 533 kts 110°
2026-04-26 17:26 33.39384 -113.71304 38909 ft 531 kts 114°
2026-04-26 17:27 33.37138 -113.62943 38917 ft 528 kts 116°
2026-04-26 17:27 33.34817 -113.54620 38916 ft 528 kts 116°
2026-04-26 17:28 33.32510 -113.46329 38919 ft 529 kts 116°
2026-04-26 17:28 33.30202 -113.38017 38929 ft 529 kts 116°
2026-04-26 17:29 33.28273 -113.31072 38928 ft 528 kts 117°
2026-04-26 17:29 33.25562 -113.21367 38922 ft 529 kts 117°
2026-04-26 17:30 33.23236 -113.13057 38932 ft 530 kts 117°
2026-04-26 17:30 33.20919 -113.04788 38927 ft 529 kts 117°
2026-04-26 17:31 33.18576 -112.96470 38933 ft 530 kts 117°
2026-04-26 17:31 33.16224 -112.88140 38928 ft 531 kts 117°
2026-04-26 17:32 33.13850 -112.79751 38915 ft 533 kts 117°
2026-04-26 17:32 33.11485 -112.71422 38932 ft 533 kts 117°
2026-04-26 17:33 33.09111 -112.63091 38922 ft 534 kts 117°
2026-04-26 17:34 33.05532 -112.50545 38937 ft 534 kts 117°
2026-04-26 17:34 33.03234 -112.42191 38938 ft 536 kts 116°
2026-04-26 17:35 33.00929 -112.33730 38933 ft 536 kts 117°
2026-04-26 17:35 32.98631 -112.25352 38940 ft 536 kts 116°
2026-04-26 17:36 32.96301 -112.16906 38919 ft 536 kts 116°
2026-04-26 17:36 32.93980 -112.08528 38931 ft 537 kts 116°
2026-04-26 17:37 32.91632 -112.00073 38925 ft 537 kts 117°
2026-04-26 17:37 32.89281 -111.91640 38931 ft 538 kts 117°
2026-04-26 17:38 32.85767 -111.79066 38940 ft 537 kts 116°
2026-04-26 17:38 32.83403 -111.70642 38942 ft 537 kts 117°
2026-04-26 17:39 32.81049 -111.62282 38932 ft 537 kts 117°
2026-04-26 17:39 32.78667 -111.53856 38928 ft 539 kts 117°
2026-04-26 17:40 32.77088 -111.48275 38940 ft 539 kts 116°
2026-04-26 17:40 32.73900 -111.37026 38947 ft 538 kts 117°
2026-04-26 17:41 32.71524 -111.28670 38951 ft 536 kts 117°
2026-04-26 17:41 32.69136 -111.20321 38959 ft 538 kts 117°
2026-04-26 17:42 32.66745 -111.11970 38961 ft 536 kts 117°
2026-04-26 17:42 32.64348 -111.03622 38962 ft 536 kts 117°
2026-04-26 17:43 32.61929 -110.95235 38961 ft 537 kts 117°
2026-04-26 17:43 32.59512 -110.86864 38973 ft 538 kts 117°
2026-04-26 17:44 32.57098 -110.78526 38986 ft 538 kts 117°
2026-04-26 17:44 32.54662 -110.70146 38982 ft 539 kts 117°
2026-04-26 17:45 32.52231 -110.61786 38993 ft 538 kts 117°
2026-04-26 17:45 32.49790 -110.53436 38985 ft 539 kts 117°
2026-04-26 17:46 32.47345 -110.45094 38973 ft 538 kts 117°
2026-04-26 17:46 32.44884 -110.36709 38987 ft 537 kts 117°
2026-04-26 17:47 32.43251 -110.31162 38997 ft 538 kts 117°
2026-04-26 17:47 32.39971 -110.20054 39012 ft 538 kts 117°
2026-04-26 17:48 32.37502 -110.11721 39015 ft 537 kts 118°
2026-04-26 17:48 32.35046 -110.03465 39010 ft 538 kts 117°
2026-04-26 17:49 32.32547 -109.95089 39017 ft 538 kts 117°
2026-04-26 17:49 32.30172 -109.86759 39025 ft 542 kts 113°
2026-04-26 17:50 32.28542 -109.78016 39030 ft 549 kts 104°
2026-04-26 17:50 32.27487 -109.69109 39032 ft 549 kts 103°
2026-04-26 17:51 32.26459 -109.60223 39031 ft 550 kts 103°
2026-04-26 17:51 32.25396 -109.51320 39029 ft 549 kts 103°
2026-04-26 17:52 32.24304 -109.42388 39031 ft 549 kts 103°
2026-04-26 17:52 32.23213 -109.33512 39024 ft 547 kts 104°
2026-04-26 17:53 32.22115 -109.24668 39020 ft 547 kts 104°
2026-04-26 17:54 32.20456 -109.11387 39022 ft 546 kts 104°
2026-04-26 17:54 32.19351 -109.02610 39028 ft 545 kts 104°
2026-04-26 17:55 32.18234 -108.93787 39028 ft 545 kts 104°
2026-04-26 17:55 32.17115 -108.84975 39022 ft 544 kts 104°
2026-04-26 17:56 32.15988 -108.76184 39017 ft 545 kts 104°
2026-04-26 17:57 32.13707 -108.58532 39020 ft 545 kts 104°
2026-04-26 17:57 32.12559 -108.49706 39031 ft 546 kts 104°
2026-04-26 17:58 32.10249 -108.32098 39032 ft 545 kts 105°
2026-04-26 17:59 32.08502 -108.18883 39048 ft 545 kts 105°
2026-04-26 17:59 32.07322 -108.10066 39048 ft 545 kts 105°
2026-04-26 18:00 32.06145 -108.01270 39046 ft 544 kts 105°
2026-04-26 18:00 32.04954 -107.92482 39052 ft 545 kts 105°
2026-04-26 18:01 32.03765 -107.83698 39042 ft 546 kts 105°
2026-04-26 18:01 32.02555 -107.74844 39044 ft 546 kts 105°
2026-04-26 18:02 32.01754 -107.68989 39039 ft 546 kts 105°
2026-04-26 18:02 32.00140 -107.57258 39036 ft 547 kts 105°
2026-04-26 18:03 31.98921 -107.48446 39046 ft 547 kts 105°
2026-04-26 18:03 31.97691 -107.39623 39054 ft 548 kts 105°
2026-04-26 18:04 31.96450 -107.30749 39060 ft 548 kts 105°
2026-04-26 18:05 31.94592 -107.17580 39058 ft 548 kts 105°
2026-04-26 18:05 31.93337 -107.08715 39053 ft 548 kts 105°
2026-04-26 18:06 31.92078 -106.99901 39065 ft 548 kts 105°
2026-04-26 18:06 31.90821 -106.91107 39046 ft 547 kts 105°
2026-04-26 18:07 31.89554 -106.82333 39033 ft 548 kts 105°
2026-04-26 18:07 31.88276 -106.73504 39018 ft 548 kts 105°
2026-04-26 18:08 31.86996 -106.64693 39019 ft 548 kts 105°
2026-04-26 18:08 31.85712 -106.55917 39020 ft 547 kts 105°
2026-04-26 18:09 31.84417 -106.47122 39024 ft 548 kts 105°
2026-04-26 18:09 31.83124 -106.38367 39023 ft 547 kts 105°
2026-04-26 18:10 31.81819 -106.29567 39017 ft 546 kts 105°
2026-04-26 18:10 31.80713 -106.20743 39018 ft 547 kts 103°
2026-04-26 18:11 31.79689 -106.11929 39030 ft 548 kts 102°
2026-04-26 18:11 31.78648 -106.03033 39061 ft 548 kts 102°
2026-04-26 18:12 31.77602 -105.94191 39068 ft 547 kts 102°
2026-04-26 18:12 31.76536 -105.85371 39082 ft 548 kts 102°
2026-04-26 18:13 31.75478 -105.76591 39099 ft 546 kts 102°
2026-04-26 18:13 31.74405 -105.67760 39092 ft 545 kts 102°
2026-04-26 18:14 31.73332 -105.59011 39086 ft 546 kts 102°
2026-04-26 18:14 31.72249 -105.50193 39078 ft 545 kts 102°
2026-04-26 18:15 31.71167 -105.41440 39053 ft 545 kts 102°
2026-04-26 18:15 31.70076 -105.32650 39041 ft 543 kts 103°
2026-04-26 18:16 31.68980 -105.23892 39032 ft 543 kts 103°
2026-04-26 18:16 31.67331 -105.10810 39045 ft 543 kts 102°
2026-04-26 18:17 31.66224 -105.02082 39043 ft 542 kts 103°
2026-04-26 18:17 31.65106 -104.93361 39052 ft 543 kts 102°
2026-04-26 18:18 31.63990 -104.84629 39051 ft 542 kts 103°
2026-04-26 18:18 31.62866 -104.75924 39054 ft 542 kts 102°
2026-04-26 18:19 31.61736 -104.67208 39051 ft 542 kts 103°
2026-04-26 18:19 31.60590 -104.58463 39048 ft 544 kts 102°
2026-04-26 18:20 31.59448 -104.49746 39048 ft 544 kts 102°
2026-04-26 18:20 31.58680 -104.43890 39045 ft 543 kts 102°
2026-04-26 18:21 31.57137 -104.32237 39022 ft 541 kts 103°
2026-04-26 18:21 31.55969 -104.23497 39009 ft 542 kts 103°
2026-04-26 18:22 31.54802 -104.14801 39005 ft 543 kts 103°
2026-04-26 18:22 31.53625 -104.06084 38996 ft 544 kts 103°
2026-04-26 18:23 31.52445 -103.97363 38986 ft 543 kts 103°
2026-04-26 18:23 31.51257 -103.88638 38970 ft 542 kts 103°
2026-04-26 18:24 31.50074 -103.79989 38946 ft 542 kts 103°
2026-04-26 18:24 31.48869 -103.71269 38946 ft 542 kts 103°
2026-04-26 18:25 31.47659 -103.62552 38933 ft 543 kts 102°
2026-04-26 18:25 31.46486 -103.53849 38913 ft 543 kts 101°
2026-04-26 18:26 31.45432 -103.45101 38924 ft 544 kts 101°
2026-04-26 18:26 31.44388 -103.36394 38916 ft 544 kts 101°
2026-04-26 18:27 31.43326 -103.27696 38916 ft 543 kts 102°
2026-04-26 18:27 31.42244 -103.18977 38930 ft 543 kts 101°
2026-04-26 18:28 31.41156 -103.10218 38930 ft 543 kts 102°
2026-04-26 18:28 31.40062 -103.01530 38929 ft 543 kts 101°
2026-04-26 18:29 31.38957 -102.92754 38932 ft 544 kts 101°
2026-04-26 18:29 31.37858 -102.84063 38930 ft 543 kts 102°
2026-04-26 18:30 31.36753 -102.75387 38932 ft 543 kts 102°
2026-04-26 18:30 31.35636 -102.66680 38925 ft 542 kts 101°
2026-04-26 18:31 31.34513 -102.57969 38917 ft 543 kts 101°
2026-04-26 18:31 31.33383 -102.49270 38927 ft 543 kts 101°
2026-04-26 18:32 31.32249 -102.40557 38924 ft 542 kts 101°
2026-04-26 18:32 31.31115 -102.31867 38929 ft 542 kts 102°
2026-04-26 18:33 31.29971 -102.23193 38946 ft 542 kts 102°
2026-04-26 18:33 31.28817 -102.14484 38941 ft 542 kts 102°
2026-04-26 18:34 31.27670 -102.05850 38935 ft 540 kts 102°
2026-04-26 18:34 31.26513 -101.97213 38928 ft 541 kts 101°
2026-04-26 18:35 31.25345 -101.88532 38935 ft 541 kts 102°
2026-04-26 18:35 31.24177 -101.79887 38937 ft 540 kts 102°
2026-04-26 18:36 31.23001 -101.71233 38936 ft 541 kts 102°
2026-04-26 18:36 31.21821 -101.62636 38940 ft 540 kts 102°
2026-04-26 18:37 31.20631 -101.53974 38938 ft 541 kts 101°
2026-04-26 18:37 31.19442 -101.45341 38932 ft 541 kts 101°
2026-04-26 18:38 31.18237 -101.36701 38930 ft 541 kts 101°
2026-04-26 18:38 31.17298 -101.27974 38923 ft 543 kts 97°
2026-04-26 18:39 31.16650 -101.19230 38926 ft 542 kts 96°
2026-04-26 18:39 31.15997 -101.10473 38926 ft 543 kts 96°
2026-04-26 18:40 31.15329 -101.01725 38926 ft 544 kts 97°
2026-04-26 18:40 31.14641 -100.92959 38919 ft 543 kts 96°
2026-04-26 18:41 31.13948 -100.84197 38919 ft 543 kts 96°
2026-04-26 18:41 31.13251 -100.75468 38914 ft 543 kts 96°
2026-04-26 18:42 31.12544 -100.66686 38917 ft 544 kts 96°
2026-04-26 18:42 31.11833 -100.57966 38903 ft 544 kts 96°
2026-04-26 18:43 31.11120 -100.49210 38902 ft 544 kts 96°
2026-04-26 18:43 31.10396 -100.40456 38901 ft 544 kts 96°
2026-04-26 18:44 31.09661 -100.31634 38898 ft 544 kts 97°
2026-04-26 18:44 31.08931 -100.22931 38914 ft 544 kts 96°
2026-04-26 18:45 31.08188 -100.14171 38909 ft 545 kts 96°
2026-04-26 18:45 31.07435 -100.05357 38913 ft 545 kts 96°
2026-04-26 18:46 31.06682 -99.96594 38917 ft 545 kts 96°
2026-04-26 18:46 31.05917 -99.87773 38923 ft 546 kts 96°
2026-04-26 18:47 31.05150 -99.78984 38918 ft 547 kts 97°
2026-04-26 18:47 31.04376 -99.70227 38902 ft 546 kts 96°
2026-04-26 18:48 31.03598 -99.61455 38901 ft 546 kts 96°
2026-04-26 18:48 31.02813 -99.52679 38894 ft 545 kts 96°
2026-04-26 18:49 31.02023 -99.43903 38895 ft 544 kts 96°
2026-04-26 18:49 31.01231 -99.35194 38887 ft 544 kts 96°
2026-04-26 18:50 31.00427 -99.26408 38876 ft 544 kts 97°
2026-04-26 18:50 30.99623 -99.17729 38876 ft 543 kts 97°
2026-04-26 18:51 30.98810 -99.08972 38876 ft 543 kts 96°
2026-04-26 18:51 30.97990 -99.00257 38884 ft 543 kts 96°
2026-04-26 18:52 30.97166 -98.91536 38889 ft 543 kts 96°
2026-04-26 18:52 30.96291 -98.82832 38890 ft 543 kts 99°
2026-04-26 18:53 30.95120 -98.74188 38891 ft 543 kts 99°
2026-04-26 18:53 30.93894 -98.65514 38885 ft 543 kts 100°
2026-04-26 18:54 30.92685 -98.56895 38891 ft 542 kts 99°
2026-04-26 18:54 30.91467 -98.48250 38881 ft 542 kts 99°
2026-04-26 18:55 30.90246 -98.39584 38882 ft 542 kts 99°
2026-04-26 18:55 30.89022 -98.30950 38872 ft 542 kts 100°
2026-04-26 18:56 30.87791 -98.22334 38882 ft 542 kts 100°
2026-04-26 18:56 30.86554 -98.13696 38880 ft 541 kts 100°
2026-04-26 18:57 30.85522 -98.06539 38869 ft 541 kts 100°
2026-04-26 18:57 30.84061 -97.96456 38873 ft 541 kts 99°
2026-04-26 18:58 30.82812 -97.87857 38866 ft 541 kts 100°
2026-04-26 18:58 30.81552 -97.79264 38866 ft 540 kts 99°
2026-04-26 18:59 30.80280 -97.70658 38865 ft 540 kts 99°
2026-04-26 18:59 30.79004 -97.62057 38470 ft 540 kts 99°
2026-04-26 19:00 30.78368 -97.57797 37956 ft 536 kts 99°
2026-04-26 19:00 30.77740 -97.53585 37325 ft 535 kts 99°
2026-04-26 19:00 30.77104 -97.49327 36623 ft 535 kts 99°
2026-04-26 19:00 30.76467 -97.45055 35877 ft 535 kts 100°
2026-04-26 19:01 30.75835 -97.40841 35072 ft 537 kts 100°
2026-04-26 19:01 30.75185 -97.36554 34242 ft 538 kts 99°
2026-04-26 19:01 30.74540 -97.32287 33410 ft 539 kts 101°
2026-04-26 19:01 30.73899 -97.28054 32620 ft 539 kts 101°
2026-04-26 19:02 30.73251 -97.23789 31796 ft 538 kts 101°
2026-04-26 19:02 30.72605 -97.19531 30953 ft 538 kts 101°
2026-04-26 19:02 30.71950 -97.15249 30085 ft 537 kts 101°
2026-04-26 19:02 30.71516 -97.12427 29501 ft 536 kts 101°
2026-04-26 19:03 30.70644 -97.06750 28478 ft 530 kts 101°
2026-04-26 19:03 30.70002 -97.02567 27892 ft 522 kts 101°
2026-04-26 19:03 30.69370 -96.98438 27289 ft 514 kts 101°
2026-04-26 19:03 30.68751 -96.94419 26689 ft 508 kts 101°
2026-04-26 19:04 30.68133 -96.90412 26097 ft 501 kts 101°
2026-04-26 19:04 30.67522 -96.86459 25502 ft 494 kts 101°
2026-04-26 19:04 30.66918 -96.82568 24914 ft 488 kts 101°
2026-04-26 19:04 30.66318 -96.78728 24329 ft 483 kts 100°
2026-04-26 19:05 30.65134 -96.71144 23152 ft 471 kts 100°
2026-04-26 19:05 30.64555 -96.67442 22593 ft 466 kts 100°
2026-04-26 19:05 30.63984 -96.63805 22043 ft 461 kts 100°
2026-04-26 19:06 30.63406 -96.60151 21476 ft 456 kts 100°
2026-04-26 19:06 30.62834 -96.56535 20899 ft 452 kts 100°
2026-04-26 19:06 30.62270 -96.52981 20319 ft 449 kts 100°
2026-04-26 19:06 30.61706 -96.49441 19730 ft 445 kts 100°
2026-04-26 19:07 30.61144 -96.45916 19140 ft 441 kts 101°
2026-04-26 19:07 30.60313 -96.42524 18553 ft 437 kts 112°
2026-04-26 19:07 30.58937 -96.39420 17974 ft 431 kts 124°
2026-04-26 19:07 30.57211 -96.36596 17396 ft 426 kts 128°
2026-04-26 19:08 30.55439 -96.33890 16819 ft 422 kts 129°
2026-04-26 19:08 30.53663 -96.31172 16247 ft 418 kts 129°
2026-04-26 19:08 30.51933 -96.28482 15688 ft 414 kts 128°
2026-04-26 19:08 30.50249 -96.25835 15144 ft 410 kts 128°
2026-04-26 19:09 30.48580 -96.23199 14607 ft 406 kts 127°
2026-04-26 19:09 30.46904 -96.20552 14057 ft 401 kts 127°
2026-04-26 19:09 30.45264 -96.17962 13506 ft 397 kts 127°
2026-04-26 19:09 30.43655 -96.15427 12959 ft 394 kts 127°
2026-04-26 19:10 30.42033 -96.12871 12496 ft 387 kts 127°
2026-04-26 19:10 30.40473 -96.10416 12192 ft 376 kts 127°
2026-04-26 19:10 30.38948 -96.08019 11992 ft 363 kts 127°
2026-04-26 19:10 30.37485 -96.05720 11793 ft 351 kts 128°
2026-04-26 19:11 30.35832 -96.03719 11571 ft 337 kts 146°
2026-04-26 19:11 30.33771 -96.02555 11228 ft 328 kts 163°
2026-04-26 19:11 30.31605 -96.01770 10862 ft 323 kts 165°
2026-04-26 19:11 30.29492 -96.01037 10341 ft 312 kts 165°
2026-04-26 19:12 30.27433 -96.00313 9803 ft 301 kts 165°
2026-04-26 19:12 30.25472 -95.99612 9291 ft 293 kts 164°
2026-04-26 19:12 30.23544 -95.98914 8929 ft 289 kts 164°
2026-04-26 19:12 30.21662 -95.98228 8566 ft 284 kts 164°
2026-04-26 19:13 30.19784 -95.97539 8312 ft 272 kts 164°
2026-04-26 19:13 30.18043 -95.96899 8197 ft 255 kts 164°
2026-04-26 19:13 30.16395 -95.96292 8086 ft 242 kts 164°
2026-04-26 19:13 30.14807 -95.95709 7972 ft 234 kts 164°
2026-04-26 19:14 30.13267 -95.95144 7891 ft 232 kts 164°
2026-04-26 19:14 30.11720 -95.94574 7909 ft 237 kts 164°
2026-04-26 19:14 30.10148 -95.93994 7911 ft 238 kts 164°
2026-04-26 19:14 30.09610 -95.93796 7911 ft 238 kts 164°
2026-04-26 19:15 30.06977 -95.92822 7913 ft 238 kts 164°
2026-04-26 19:15 30.05387 -95.92234 7919 ft 239 kts 164°
2026-04-26 19:15 30.03802 -95.91650 7923 ft 239 kts 163°
2026-04-26 19:15 30.02303 -95.90821 7910 ft 242 kts 143°
2026-04-26 19:16 30.01180 -95.89384 7934 ft 244 kts 128°
2026-04-26 19:16 30.00195 -95.87778 7936 ft 244 kts 127°
2026-04-26 19:16 29.99251 -95.86137 7944 ft 254 kts 123°
2026-04-26 19:16 29.98604 -95.84242 7810 ft 256 kts 98°
2026-04-26 19:17 29.98760 -95.82200 7568 ft 254 kts 79°
2026-04-26 19:17 29.99092 -95.80241 7293 ft 252 kts 83°
2026-04-26 19:17 29.99255 -95.78233 7010 ft 250 kts 88°
2026-04-26 19:17 29.99342 -95.76259 6954 ft 238 kts 89°
2026-04-26 19:18 29.99389 -95.74369 6694 ft 237 kts 91°
2026-04-26 19:18 29.99410 -95.72496 6497 ft 232 kts 91°
2026-04-26 19:18 29.99416 -95.70665 6294 ft 229 kts 92°
2026-04-26 19:18 29.99413 -95.68839 6091 ft 225 kts 93°
2026-04-26 19:19 29.99406 -95.67058 5893 ft 221 kts 93°
2026-04-26 19:19 29.99397 -95.65288 5694 ft 218 kts 93°
2026-04-26 19:19 29.99388 -95.63556 5539 ft 211 kts 93°
2026-04-26 19:19 29.99380 -95.61904 5358 ft 202 kts 93°
2026-04-26 19:20 29.99373 -95.60300 5114 ft 198 kts 93°
2026-04-26 19:20 29.99368 -95.59246 4939 ft 197 kts 93°
2026-04-26 19:20 29.99361 -95.57175 4484 ft 194 kts 93°
2026-04-26 19:20 29.99357 -95.55627 4127 ft 191 kts 93°
2026-04-26 19:21 29.99354 -95.54099 3821 ft 190 kts 93°
2026-04-26 19:21 29.99352 -95.52584 3462 ft 187 kts 94°
2026-04-26 19:21 29.99350 -95.51083 3103 ft 185 kts 94°
2026-04-26 19:21 29.99349 -95.49608 2745 ft 184 kts 93°
2026-04-26 19:22 29.99348 -95.48158 2389 ft 180 kts 94°
2026-04-26 19:22 29.99348 -95.46746 2052 ft 173 kts 94°
2026-04-26 19:22 29.99349 -95.45435 1955 ft 150 kts 94°
2026-04-26 19:22 29.99359 -95.44297 1754 ft 137 kts 94°
2026-04-26 19:23 29.99365 -95.43217 1453 ft 130 kts 94°
2026-04-26 19:23 29.99360 -95.42193 1192 ft 125 kts 94°
2026-04-26 19:23 29.99354 -95.41190 1042 ft 125 kts 94°
2026-04-26 19:23 29.99351 -95.40189 890 ft 125 kts 93°
2026-04-26 19:24 29.99356 -95.39184 718 ft 125 kts 94°
2026-04-26 19:24 29.99345 -95.38172 566 ft 125 kts 93°
2026-04-26 19:24 29.99344 -95.36172 261 ft 124 kts 92°
2026-04-26 19:25 29.99345 -95.35178 119 ft 123 kts 92°
2026-04-26 19:25 29.99342 -95.34549 101 ft 106 kts 91°
2026-04-26 19:25 29.99344 -95.33753 101 ft 55 kts 90°
2026-04-26 19:25 29.99335 -95.33412 101 ft 32 kts 97°
2026-04-26 19:26 29.99261 -95.33195 99 ft 22 kts 122°
2026-04-26 19:26 29.99222 -95.33123 98 ft 7 kts 121°
2026-04-26 19:26 29.99200 -95.33079 98 ft 4 kts 121°
2026-04-26 19:26 29.99169 -95.33039 97 ft 10 kts 148°
2026-04-26 19:27 29.99101 -95.32993 97 ft 12 kts 123°
2026-04-26 19:27 29.99089 -95.32894 97 ft 13 kts 90°
2026-04-26 19:27 29.99089 -95.32774 97 ft 18 kts 89°
2026-04-26 19:27 29.99087 -95.32593 97 ft 26 kts 94°
2026-04-26 19:28 29.99083 -95.32365 97 ft 27 kts 90°
2026-04-26 19:28 29.99083 -95.32150 97 ft 26 kts 90°
2026-04-26 19:28 29.99083 -95.31947 96 ft 25 kts 89°
2026-04-26 19:28 29.99083 -95.31748 96 ft 24 kts 90°
2026-04-26 19:29 29.99081 -95.31554 94 ft 22 kts 91°
2026-04-26 19:29 29.99082 -95.31394 94 ft 16 kts 90°
2026-04-26 19:29 29.99092 -95.31305 94 ft 9 kts 49°
2026-04-26 19:29 29.99150 -95.31294 94 ft 7 kts 359°
2026-04-26 19:30 29.99156 -95.31295 94 ft 0 kts 360°
2026-04-26 19:30 29.99164 -95.31295 94 ft 2 kts 360°
2026-04-26 19:30 29.99237 -95.31295 94 ft 14 kts 360°
2026-04-26 19:30 29.99306 -95.31295 94 ft 15 kts
2026-04-26 19:31 29.99452 -95.31295 94 ft 16 kts 360°
2026-04-26 19:31 29.99566 -95.31296 94 ft 16 kts
2026-04-26 19:31 29.99683 -95.31294 94 ft 17 kts
2026-04-26 19:31 29.99800 -95.31296 94 ft 14 kts
2026-04-26 19:32 29.99841 -95.31216 94 ft 6 kts 90°
2026-04-26 19:32 29.99871 -95.31184 94 ft 7 kts 359°
2026-04-26 19:32 29.99924 -95.31184 94 ft 4 kts
2026-04-26 19:32 29.99931 -95.31184 94 ft 0 kts